Johnstown, NE

7:11 AM CST on February 23, 2017 (GMT -0600)
Ainsworth Municipal

Weather History for KANW - April, 2013

Change the Weather History Date:

Friday, April 12, 2013

  Actual Average Record
Temperature  
Mean Temperature 30 °F -  
Max Temperature 39 °F 55 °F 78 °F (2003)
Min Temperature 20 °F 33 °F 17 °F (1997)
Degree Days  
Heating Degree Days 36    
Moisture  
Dew Point 26 °F    
Average Humidity 82    
Maximum Humidity 93    
Minimum Humidity 64    
Precipitation  
Precipitation 0.09 in - - ()
Sea Level Pressure  
Sea Level Pressure 29.89 in    
Wind  
Wind Speed 7 mph (NW)    
Max Wind Speed 16 mph    
Max Gust Speed 18 mph    
Visibility 10 miles    
Events      
Averages and records for this station are not official NWS values.
T = Trace of Precipitation, MM = Missing Value Source: NWS Daily Summary

Daily Weather History Graph

Daily Weather History Graph

Search for Another Location

Airport or City:

Trip Planner

Search our weather history database for the weather conditions in past years. The results will help you decide how hot, cold, wet, or windy it might be!

Date:

Astronomy

Apr. 12, 2013 Rise Set
Actual Time 7:03 AM CDT 8:18 PM CDT
Civil Twilight 6:34 AM CDT 8:48 PM CDT
Nautical Twilight 5:59 AM CDT 9:23 PM CDT
Astronomical Twilight 5:22 AM CDT 10:00 PM CDT
Moon 8:11 AM CDT (4/12) 10:54 PM CDT (4/12)
Length of Visible Light 14h 13m
Length of Day
13h 15m
Waxing Crescent, 5% of the Moon is Illuminated
Apr 12
Waxing Crescent
Apr 18
First Quarter
Apr 25
Full
May 2
Last Quarter
May 9
New

Hourly Weather History & Observations

Time (CDT) Temp. Windchill Dew Point Humidity Pressure Visibility Wind Dir Wind Speed Gust Speed Precip Events Conditions
12:15 AM 26.8 °F 18.5 °F 23.5 °F 88% 29.83 in 10.0 mi NW 8.1 mph - N/A   Overcast
12:35 AM 26.6 °F 18.2 °F 23.4 °F 88% 29.82 in 10.0 mi NW 8.1 mph - N/A   Overcast
12:55 AM 26.6 °F 16.8 °F 23.0 °F 86% 29.82 in 10.0 mi NW 10.4 mph - N/A   Overcast
1:15 AM 26.6 °F 19.1 °F 23.0 °F 86% 29.82 in 10.0 mi NW 6.9 mph - N/A   Overcast
1:35 AM 25.7 °F 17.1 °F 22.6 °F 88% 29.81 in 10.0 mi NW 8.1 mph - N/A   Overcast
1:55 AM 25.3 °F 18.5 °F 22.1 °F 87% 29.81 in 10.0 mi WNW 5.8 mph - N/A   Scattered Clouds
2:15 AM 23.5 °F 16.4 °F 20.8 °F 89% 29.81 in 10.0 mi WNW 5.8 mph - N/A   Clear
2:35 AM 23.4 °F 16.2 °F 20.8 °F 90% 29.81 in 10.0 mi NW 5.8 mph - N/A   Clear
2:55 AM 23.7 °F 16.6 °F 21.4 °F 91% 29.82 in 10.0 mi NW 5.8 mph - N/A   Clear
3:15 AM 22.6 °F 16.5 °F 20.3 °F 91% 29.82 in 10.0 mi NW 4.6 mph - N/A   Clear
3:35 AM 21.2 °F - 19.2 °F 92% 29.82 in 10.0 mi Calm Calm - N/A   Scattered Clouds
3:55 AM 20.1 °F 13.6 °F 18.0 °F 91% 29.82 in 10.0 mi North 4.6 mph - N/A   Mostly Cloudy
4:15 AM 21.6 °F 16.8 °F 19.6 °F 92% 29.82 in 10.0 mi North 3.5 mph - N/A   Overcast
4:35 AM 23.0 °F - 21.2 °F 93% 29.82 in 10.0 mi Calm Calm - N/A   Overcast
4:55 AM 23.7 °F - 21.7 °F 92% 29.83 in 10.0 mi Calm Calm - 0.01 in   Overcast
5:15 AM 24.6 °F 15.1 °F 22.8 °F 93% 29.82 in 10.0 mi North 9.2 mph - N/A   Overcast
5:35 AM 24.8 °F 17.9 °F 23.0 °F 93% 29.83 in 10.0 mi North 5.8 mph - N/A   Overcast
5:55 AM 24.6 °F 18.8 °F 22.6 °F 92% 29.83 in 10.0 mi North 4.6 mph - N/A   Overcast
6:15 AM 24.4 °F 16.5 °F 22.5 °F 92% 29.83 in 10.0 mi North 6.9 mph - N/A   Overcast
6:35 AM 24.4 °F 15.6 °F 22.6 °F 93% 29.83 in 10.0 mi NNW 8.1 mph - N/A   Overcast
6:55 AM 23.9 °F 15.0 °F 22.1 °F 93% 29.84 in 10.0 mi NNW 8.1 mph - N/A   Overcast
7:15 AM 24.3 °F 16.3 °F 22.5 °F 93% 29.85 in 10.0 mi NW 6.9 mph - N/A   Overcast
7:35 AM 24.3 °F 16.3 °F 22.5 °F 93% 29.87 in 10.0 mi NNW 6.9 mph - N/A   Overcast
7:55 AM 24.3 °F 17.3 °F 22.5 °F 93% 29.87 in 7.0 mi NNW 5.8 mph - N/A   Overcast
8:15 AM 24.6 °F 18.8 °F 22.8 °F 93% 29.87 in 10.0 mi NNW 4.6 mph - N/A   Overcast
8:35 AM 24.8 °F 17.9 °F 23.0 °F 93% 29.88 in 10.0 mi NNW 5.8 mph - N/A   Overcast
8:55 AM 25.3 °F 18.5 °F 23.5 °F 93% 29.88 in 10.0 mi North 5.8 mph - N/A   Overcast
9:15 AM 25.7 °F 17.1 °F 23.9 °F 93% 29.89 in 10.0 mi NNW 8.1 mph - N/A   Overcast
9:35 AM 26.6 °F 19.1 °F 24.8 °F 93% 29.89 in 10.0 mi NNW 6.9 mph - N/A   Overcast
9:55 AM 27.5 °F 19.3 °F 24.4 °F 88% 29.89 in 10.0 mi North 8.1 mph - 0.01 in   Overcast
10:15 AM 28.0 °F 21.7 °F 24.3 °F 86% 29.89 in 10.0 mi NNW 5.8 mph - 0.01 in   Overcast
10:35 AM 28.9 °F 22.8 °F 24.6 °F 84% 29.90 in 10.0 mi NNW 5.8 mph - 0.02 in   Overcast
10:55 AM 29.5 °F 24.5 °F 24.8 °F 83% 29.90 in 5.0 mi NW 4.6 mph - 0.03 in   Overcast
11:15 AM 30.2 °F 25.4 °F 25.2 °F 82% 29.91 in 10.0 mi WNW 4.6 mph - 0.01 in   Overcast
11:35 AM 31.1 °F 23.7 °F 25.3 °F 79% 29.91 in 10.0 mi WNW 8.1 mph - 0.01 in   Overcast
11:55 AM 31.8 °F 23.9 °F 25.5 °F 78% 29.92 in 10.0 mi WNW 9.2 mph - 0.02 in   Overcast
12:15 PM 32.0 °F 24.8 °F 25.9 °F 78% 29.91 in 10.0 mi WNW 8.1 mph - 0.01 in   Scattered Clouds
12:35 PM 32.9 °F 24.1 °F 26.2 °F 76% 29.91 in 10.0 mi WNW 11.5 mph - 0.02 in   Clear
12:55 PM 33.6 °F 26.2 °F 26.2 °F 74% 29.91 in 10.0 mi WNW 9.2 mph - 0.02 in   Scattered Clouds
1:15 PM 33.8 °F 26.4 °F 26.4 °F 74% 29.92 in 10.0 mi WNW 9.2 mph - N/A   Scattered Clouds
1:35 PM 34.2 °F 26.2 °F 26.4 °F 73% 29.92 in 10.0 mi NW 10.4 mph - N/A   Clear
1:55 PM 34.9 °F 28.3 °F 27.1 °F 73% 29.91 in 10.0 mi WNW 8.1 mph - N/A   Clear
2:15 PM 35.1 °F 26.9 °F 27.0 °F 72% 29.91 in 10.0 mi West 11.5 mph - N/A   Clear
2:35 PM 35.8 °F 30.1 °F 27.5 °F 72% 29.91 in 10.0 mi West 6.9 mph - N/A   Mostly Cloudy
2:55 PM 36.7 °F 30.5 °F 27.9 °F 70% 29.92 in 10.0 mi WNW 8.1 mph - N/A   Mostly Cloudy
3:15 PM 37.0 °F 31.6 °F 28.4 °F 71% 29.92 in 10.0 mi West 6.9 mph - N/A   Overcast
3:35 PM 38.3 °F 30.9 °F 28.4 °F 68% 29.92 in 10.0 mi WNW 11.5 mph - N/A   Overcast
3:55 PM 38.7 °F 30.1 °F 28.2 °F 66% 29.92 in 10.0 mi NW 15.0 mph - N/A   Overcast
4:15 PM 38.7 °F 32.4 °F 27.3 °F 64% 29.92 in 10.0 mi NW 9.2 mph 18.4 mph N/A   Overcast
4:35 PM 38.7 °F 31.4 °F 28.9 °F 68% 29.92 in 10.0 mi WNW 11.5 mph 18.4 mph N/A   Overcast
4:55 PM 38.7 °F 32.4 °F 29.3 °F 69% 29.91 in 10.0 mi WNW 9.2 mph - N/A   Scattered Clouds
5:15 PM 38.5 °F 32.1 °F 29.1 °F 69% 29.91 in 10.0 mi WNW 9.2 mph 18.4 mph N/A   Clear
5:35 PM 38.3 °F 31.4 °F 29.1 °F 70% 29.92 in 10.0 mi NW 10.4 mph - N/A   Clear
5:55 PM 38.5 °F 31.6 °F 28.9 °F 69% 29.92 in 10.0 mi WNW 10.4 mph - N/A   Clear
6:15 PM 39.2 °F 30.5 °F 28.4 °F 65% 29.93 in 10.0 mi NW 16.1 mph - N/A   Scattered Clouds
6:35 PM 38.3 °F 30.9 °F 28.4 °F 68% 29.94 in 10.0 mi NNW 11.5 mph - N/A   Mostly Cloudy
6:55 PM 36.0 °F 29.6 °F 28.9 °F 76% 29.94 in 10.0 mi North 8.1 mph - N/A   Mostly Cloudy
7:15 PM 35.4 °F 29.7 °F 28.9 °F 77% 29.94 in 10.0 mi North 6.9 mph - N/A   Mostly Cloudy
7:35 PM 35.1 °F 32.2 °F 29.1 °F 79% 29.94 in 10.0 mi North 3.5 mph - N/A   Overcast
7:55 PM 36.1 °F - 28.9 °F 75% 29.93 in 10.0 mi Calm Calm - N/A   Mostly Cloudy
8:15 PM 35.8 °F - 28.4 °F 75% 29.92 in 10.0 mi Calm Calm - N/A   Mostly Cloudy
8:35 PM 35.8 °F 33.0 °F 28.4 °F 75% 29.94 in 10.0 mi WNW 3.5 mph - N/A   Overcast
8:55 PM 35.6 °F 32.8 °F 29.3 °F 78% 29.94 in 10.0 mi West 3.5 mph - N/A   Overcast
9:15 PM 35.2 °F 32.4 °F 29.3 °F 79% 29.95 in 10.0 mi West 3.5 mph - N/A   Overcast
9:35 PM 34.7 °F 31.8 °F 30.0 °F 83% 29.95 in 10.0 mi SW 3.5 mph - N/A   Overcast
9:55 PM 34.9 °F 32.0 °F 29.8 °F 82% 29.95 in 10.0 mi SW 3.5 mph - N/A   Overcast
10:15 PM 35.2 °F 31.2 °F 30.9 °F 84% 29.96 in 10.0 mi WSW 4.6 mph - N/A   Overcast
10:35 PM 36.1 °F 30.6 °F 31.5 °F 83% 29.96 in 10.0 mi West 6.9 mph - N/A   Overcast
10:55 PM 36.5 °F 31.0 °F 31.6 °F 83% 29.97 in 10.0 mi WNW 6.9 mph - N/A   Overcast
11:15 PM 36.1 °F 30.6 °F 31.8 °F 84% 29.96 in 10.0 mi West 6.9 mph - N/A   Overcast
11:35 PM 35.8 °F 30.1 °F 32.0 °F 86% 29.96 in 10.0 mi West 6.9 mph - N/A   Overcast
11:55 PM 35.8 °F 29.4 °F 32.0 °F 86% 29.96 in 10.0 mi WNW 8.1 mph - N/A   Overcast